• In Czech Republic
  • List of Countries
  • For 7 days
  • Water Temperature
  • Satellite Maps
  • Weather Map
  • Weather Widgets
  • user-avatar
    Login

    Hourly Weather Blazhevschina

    Today, 16 July, Monday

    Time Temperature Precipitation Wind Pressure Humidity
    00:00 +19°C° 0 mm 2 mps 742 mmHg 93%
    01:00 +18°C° 0 mm 2 mps 742 mmHg 94%
    02:00 +19°C° 0 mm 1 mps 742 mmHg 95%
    03:00 +18°C° 0.1 mm 2 mps 742 mmHg 95%
    04:00 +18°C° 0.1 mm 2 mps 742 mmHg 95%
    05:00 +18°C° 0.1 mm 2 mps 742 mmHg 95%
    06:00 +19°C° 0.4 mm 3 mps 742 mmHg 94%
    07:00 +19°C° 0.4 mm 3 mps 743 mmHg 93%
    08:00 +20°C° 0 mm 3 mps 743 mmHg 92%
    09:00 +21°C° 0.7 mm 3 mps 743 mmHg 88%
    10:00 +22°C° 0.7 mm 4 mps 742 mmHg 84%
    11:00 +25°C° 0.7 mm 4 mps 742 mmHg 80%
    12:00 +23°C° 0.9 mm 4 mps 742 mmHg 84%
    13:00 +23°C° 0.9 mm 4 mps 742 mmHg 84%
    14:00 +27°C° 0 mm 3 mps 742 mmHg 75%
    15:00 +26°C° 1.1 mm 3 mps 742 mmHg 78%
    16:00 +26°C° 1.1 mm 3 mps 742 mmHg 81%
    17:00 +25°C° 1.1 mm 4 mps 742 mmHg 84%
    18:00 +23°C° 1.2 mm 4 mps 742 mmHg 86%
    19:00 +22°C° 1.2 mm 4 mps 741 mmHg 88%
    20:00 +21°C° 1.2 mm 4 mps 741 mmHg 90%
    21:00 +21°C° 0.7 mm 4 mps 741 mmHg 92%
    22:00 +20°C° 0.7 mm 3 mps 741 mmHg 93%
    23:00 +20°C° 0.7 mm 3 mps 741 mmHg 95%

    Tomorrow, 17 July, Tuesday

    Time Temperature Precipitation Wind Pressure Humidity
    00:00 +20°C° 0.1 mm 3 mps 741 mmHg 95%
    01:00 +19°C° 0.1 mm 3 mps 741 mmHg 96%
    02:00 +19°C° 0.1 mm 3 mps 741 mmHg 96%
    03:00 +19°C° 0 mm 3 mps 741 mmHg 96%
    04:00 +19°C° 0 mm 4 mps 741 mmHg 96%
    05:00 +19°C° 0 mm 4 mps 740 mmHg 96%
    06:00 +20°C° 0 mm 4 mps 740 mmHg 94%
    07:00 +21°C° 0 mm 5 mps 740 mmHg 91%
    08:00 +22°C° 0 mm 5 mps 740 mmHg 88%
    09:00 +23°C° 0.7 mm 6 mps 740 mmHg 84%
    10:00 +24°C° 0.7 mm 6 mps 740 mmHg 81%
    11:00 +27°C° 0.7 mm 6 mps 740 mmHg 77%
    12:00 +27°C° 0.5 mm 6 mps 740 mmHg 75%
    13:00 +28°C° 0.5 mm 5 mps 740 mmHg 73%
    14:00 +28°C° 0.5 mm 5 mps 740 mmHg 71%
    15:00 +28°C° 0.6 mm 5 mps 740 mmHg 74%
    16:00 +27°C° 0.6 mm 4 mps 739 mmHg 77%
    17:00 +27°C° 0.6 mm 4 mps 739 mmHg 81%
    18:00 +26°C° 0.4 mm 4 mps 739 mmHg 83%
    19:00 +23°C° 0.4 mm 4 mps 739 mmHg 86%
    20:00 +22°C° 0.4 mm 4 mps 740 mmHg 89%
    21:00 +22°C° 0 mm 4 mps 740 mmHg 91%
    22:00 +21°C° 0 mm 4 mps 740 mmHg 92%
    23:00 +20°C° 0 mm 4 mps 740 mmHg 93%

    Day after tomorrow, 18 July, Wednesday

    Time Temperature Precipitation Wind Pressure Humidity
    00:00 +20°C° 0 mm 4 mps 740 mmHg 94%
    01:00 +20°C° 0 mm 4 mps 740 mmHg 94%
    02:00 +19°C° 0 mm 4 mps 740 mmHg 95%
    03:00 +19°C° 0 mm 4 mps 740 mmHg 94%
    04:00 +19°C° 0 mm 4 mps 739 mmHg 94%
    05:00 +19°C° 0 mm 4 mps 739 mmHg 94%
    06:00 +20°C° 0 mm 4 mps 739 mmHg 90%
    07:00 +21°C° 0 mm 4 mps 739 mmHg 86%
    08:00 +22°C° 0 mm 5 mps 739 mmHg 81%
    09:00 +23°C° 0 mm 5 mps 739 mmHg 78%
    10:00 +25°C° 0 mm 5 mps 739 mmHg 75%
    11:00 +26°C° 0 mm 5 mps 739 mmHg 72%
    12:00 +25°C° 0.1 mm 5 mps 739 mmHg 74%
    13:00 +25°C° 0.1 mm 5 mps 739 mmHg 75%
    14:00 +25°C° 0.1 mm 5 mps 739 mmHg 77%
    15:00 +25°C° 0.1 mm 4 mps 739 mmHg 78%
    16:00 +25°C° 0.1 mm 4 mps 739 mmHg 78%
    17:00 +25°C° 0.1 mm 3 mps 739 mmHg 79%
    18:00 +22°C° 0.6 mm 3 mps 739 mmHg 83%
    19:00 +21°C° 0.6 mm 3 mps 739 mmHg 88%
    20:00 +20°C° 0.6 mm 3 mps 739 mmHg 92%
    21:00 +20°C° 0.2 mm 3 mps 739 mmHg 93%
    22:00 +19°C° 0.2 mm 3 mps 739 mmHg 95%
    23:00 +18°C° 0.2 mm 3 mps 739 mmHg 97%

    19 July, Thursday

    Time Temperature Precipitation Wind Pressure Humidity
    00:00 +18°C° 0 mm 3 mps 739 mmHg 97%
    01:00 +18°C° 0 mm 3 mps 739 mmHg 97%
    02:00 +17°C° 0 mm 3 mps 739 mmHg 98%
    03:00 +17°C° 0.3 mm 3 mps 739 mmHg 97%
    04:00 +18°C° 0.3 mm 3 mps 739 mmHg 97%
    05:00 +18°C° 0.3 mm 3 mps 739 mmHg 97%
    06:00 +18°C° 0.2 mm 3 mps 739 mmHg 96%
    07:00 +19°C° 0.2 mm 3 mps 739 mmHg 95%
    08:00 +19°C° 0.2 mm 3 mps 739 mmHg 94%
    09:00 +20°C° 0.3 mm 3 mps 739 mmHg 91%
    10:00 +21°C° 0.3 mm 4 mps 739 mmHg 89%
    11:00 +22°C° 0.3 mm 4 mps 739 mmHg 86%
    12:00 +22°C° 0.9 mm 4 mps 739 mmHg 85%
    13:00 +23°C° 0.9 mm 4 mps 739 mmHg 83%
    14:00 +25°C° 0.9 mm 4 mps 739 mmHg 82%
    15:00 +23°C° 0.9 mm 4 mps 739 mmHg 83%
    16:00 +23°C° 0.9 mm 4 mps 739 mmHg 83%
    17:00 +23°C° 0.9 mm 4 mps 739 mmHg 84%
    18:00 +22°C° 0.3 mm 4 mps 739 mmHg 87%
    19:00 +21°C° 0.3 mm 3 mps 739 mmHg 91%
    20:00 +20°C° 0.3 mm 3 mps 739 mmHg 94%
    21:00 +20°C° 0.1 mm 3 mps 739 mmHg 95%
    22:00 +19°C° 0.1 mm 3 mps 739 mmHg 96%
    23:00 +18°C° 0.1 mm 3 mps 739 mmHg 97%

    20 July, Friday

    Time Temperature Precipitation Wind Pressure Humidity
    00:00 +18°C° 0 mm 3 mps 739 mmHg 97%
    01:00 +18°C° 0 mm 3 mps 739 mmHg 97%
    02:00 +18°C° 0 mm 3 mps 739 mmHg 97%
    03:00 +18°C° 0 mm 3 mps 739 mmHg 97%
    04:00 +18°C° 0 mm 3 mps 738 mmHg 97%
    05:00 +18°C° 0 mm 3 mps 738 mmHg 97%
    06:00 +19°C° 0.1 mm 3 mps 738 mmHg 95%
    07:00 +20°C° 0.1 mm 3 mps 738 mmHg 92%
    08:00 +21°C° 0.1 mm 4 mps 738 mmHg 90%
    09:00 +21°C° 0.4 mm 3 mps 738 mmHg 87%
    10:00 +22°C° 0.4 mm 3 mps 738 mmHg 85%
    11:00 +24°C° 0.4 mm 3 mps 738 mmHg 83%
    12:00 +25°C° 1.2 mm 3 mps 738 mmHg 80%
    13:00 +25°C° 1.2 mm 3 mps 738 mmHg 78%
    14:00 +26°C° 1.2 mm 3 mps 738 mmHg 76%
    15:00 +26°C° 1.1 mm 3 mps 738 mmHg 77%
    16:00 +26°C° 1.1 mm 3 mps 738 mmHg 79%
    17:00 +26°C° 1.1 mm 3 mps 737 mmHg 81%
    18:00 +25°C° 0.4 mm 3 mps 737 mmHg 85%
    19:00 +22°C° 0.4 mm 3 mps 737 mmHg 89%
    20:00 +21°C° 0.4 mm 2 mps 737 mmHg 93%
    21:00 +21°C° 0 mm 2 mps 737 mmHg 94%
    22:00 +20°C° 0 mm 2 mps 737 mmHg 95%
    23:00 +19°C° 0 mm 2 mps 737 mmHg 97%

    21 July, Saturday

    Time Temperature Precipitation Wind Pressure Humidity
    00:00 +19°C° 0 mm 2 mps 737 mmHg 97%
    01:00 +19°C° 0 mm 2 mps 737 mmHg 97%
    02:00 +18°C° 0 mm 2 mps 737 mmHg 98%
    03:00 +18°C° 0 mm 2 mps 738 mmHg 98%
    04:00 +18°C° 0 mm 2 mps 738 mmHg 98%
    05:00 +18°C° 0 mm 2 mps 738 mmHg 98%
    06:00 +19°C° 0 mm 3 mps 738 mmHg 97%
    07:00 +20°C° 0 mm 3 mps 738 mmHg 95%
    08:00 +21°C° 0 mm 3 mps 738 mmHg 93%
    09:00 +21°C° 0 mm 3 mps 738 mmHg 91%
    10:00 +22°C° 0 mm 3 mps 739 mmHg 89%
    11:00 +22°C° 0 mm 3 mps 739 mmHg 87%
    12:00 +23°C° 0.1 mm 4 mps 739 mmHg 83%
    13:00 +25°C° 0.1 mm 4 mps 739 mmHg 80%
    14:00 +26°C° 0.1 mm 4 mps 739 mmHg 77%
    15:00 +26°C° 0.3 mm 4 mps 739 mmHg 77%
    16:00 +26°C° 0.3 mm 4 mps 739 mmHg 78%
    17:00 +26°C° 0.3 mm 4 mps 739 mmHg 78%
    18:00 +25°C° 0.1 mm 3 mps 739 mmHg 82%
    19:00 +24°C° 0.1 mm 3 mps 739 mmHg 86%
    20:00 +21°C° 0.1 mm 2 mps 740 mmHg 90%
    21:00 +21°C° 0 mm 2 mps 740 mmHg 91%
    22:00 +20°C° 0 mm 3 mps 740 mmHg 93%
    23:00 +19°C° 0 mm 3 mps 740 mmHg 94%
    Show more